+ View the NASA Portal
+ Center for Near-Earth Object Studies
IMPORTANT:
The SSD Announcement email list is now available. Major changes are coming in the near future, including possible hostname and/or URL changes. To be notified of such changes, subscribe to this email list.
Please visit
this page
for more details.
Don't show this message again
JPL Small-Body Database Browser
Search:
[
help
]
11565 (1993 FD51)
Classification:
Main-belt Asteroid
SPK-ID:
2011565
[
Ephemeris
|
Orbit Diagram
|
Orbital Elements
|
Mission Design
|
Physical Parameters
|
Discovery Circumstances
]
[ show orbit diagram ]
Orbital Elements at Epoch 2458600.5 (2019-Apr-27.0) TDB
Reference:
JPL 22
(heliocentric ecliptic J2000)
Element
Value
Uncertainty (1-sigma)
Units
e
.2383367651528804
4.546e-08
a
2.67563558299879
1.2629e-08
au
q
2.037933253418918
1.1839e-07
au
i
.5531153585018989
4.3665e-06
deg
node
273.6153451371792
0.00047975
deg
peri
103.7646458506592
0.00047984
deg
M
146.7005525044386
9.5362e-06
deg
t
p
2457949.069452545549
(2017-Jul-14.56945255)
4.0835e-05
TDB
period
1598.59654977446
4.38
1.1318e-05
3.099e-08
d
yr
n
.2251975334556997
1.5944e-09
deg/d
Q
3.313337912578664
1.5639e-08
au
Orbit Determination Parameters
# obs. used (total)
1068
data-arc span
11895 days (32.57 yr)
first obs. used
1986-10-02
last obs. used
2019-04-27
planetary ephem.
DE431
SB-pert. ephem.
SB431-N16
condition code
0
norm. resid. RMS
.53395
source
ORB
producer
Otto Matic
solution date
2019-Jul-12 19:12:52
Additional Information
Earth MOID
= 1.03902 au
Jupiter MOID
= 2.14957 au
T_jup
= 3.337
[ show covariance matrix ]
[
Ephemeris
|
Orbit Diagram
|
Orbital Elements
|
Mission Design
|
Physical Parameters
|
Discovery Circumstances
]
Physical Parameter Table
Parameter
Symbol
Value
Units
Sigma
Reference
Notes
absolute magnitude
H
14.7
n/a
MPO324416
11565 (1993 FD51)
Discovered 1993-Mar-19 by UESAC at La Silla
Reference:
19990928/Numbers.arc
Last Updated:
2004-04-19
Alternate Designations
1993 FD51
= 1986 TJ18 = 1995 UO8
[
Ephemeris
|
Orbit Diagram
|
Orbital Elements
|
Mission Design
|
Physical Parameters
|
Discovery Circumstances
]
2019-Dec-08 00:29 UT
(server date/time)
Site Manager:
Ryan S. Park
Webmaster
:
Alan B. Chamberlin